Regional Weather Roundup
Issued by NWS Jackson, KY

Home | Current Version | Previous Version | Graphics & Text | Print | Product List | Glossary On
Versions: 1 2 3 4 5 6 7 8 9 10 11 12 13 14 15 16 17 18 19 20 21 22 23 24 25 26 27
000
ASUS43 KJKL 291110
RWRJKL

EAST KENTUCKY HOURLY WEATHER ROUNDUP
NATIONAL WEATHER SERVICE JACKSON KY
700 AM EDT SAT APR 29 2017

NOTE: "FAIR" INDICATES FEW OR NO CLOUDS BELOW 12,000 FEET WITH
NO SIGNIFICANT WEATHER AND/OR OBSTRUCTIONS TO VISIBILITY.

* THESE REPORTS ARE NOT UNDER NWS QUALITY CONTROL AND MAY NOT
  REPORT WEATHER SUCH AS PRECIPITATION AND FOG.

KYZ079-080-083-085-087-088-110-112-115-119-120-291200
...EASTERN KENTUCKY...

CITY           SKY/WX    TMP DP  RH WIND       PRES   REMARKS
JACKSON        CLOUDY    71  63  75 E3        30.11R
LONDON         CLOUDY    63  61  93 CALM      30.09R
SOMERSET*      CLOUDY    70  63  78 S5        30.06F
MONTICELLO*    CLOUDY    70  65  84 VRB7      30.06F
WILLIAMSBURG*  CLOUDY    72  66  83 CALM      30.09R
MIDDLESBORO*   CLOUDY    71  64  79 SE3       30.11R
HARLAN APT*    PTSUNNY   73  61  64 CALM      30.13R
PIKE CO APT*   MOCLDY    69  63  82 CALM      30.12R
BIG SANDY APT* CLOUDY    72  63  73 CALM      30.13R
MOREHEAD APT*  CLOUDY    63  61  94 S7        30.06S
$$

KYZ035-036-041-042-044-050-067-078-099-291200
...CENTRAL KENTUCKY...

CITY           SKY/WX    TMP DP  RH WIND       PRES   REMARKS
MT STERLING*   CLOUDY    64  61  88 S8        30.05F
FLEMING/MASON* CLOUDY    63  61  94 S10       30.03F
DANVILLE*      CLOUDY    68  64  88 CALM      30.02F
LEXINGTON      CLOUDY    66  61  84 SE8       29.99F
FRANKFORT      CLOUDY    65  60  84 SE7       29.96F
LOUISVILLE     CLOUDY    68  64  87 SE10      29.93S
LEBANON*         N/A     73  66  78 S12G17    29.97F
GLASGOW*       PTCLDY    73  65  76 S8        29.98S
BOWLING GREEN  CLOUDY    75  69  81 S12       29.96R
$$

KYZ091>093-OHZ055-061-077-WVZ005-015-034-035-042-291200
...SOUTHERN OHIO/WEST VIRGINIA...

CITY           SKY/WX    TMP DP  RH WIND       PRES   REMARKS
COVINGTON      CLOUDY    63  62  97 S3        29.97R
COLUMBUS       CLOUDY    61  61 100 E7        29.95F
DAYTON         CLOUDY    60  60 100 S6        29.98F FOG
WILMINGTON     CLOUDY    63  63 100 SW13      30.01R
HUNTINGTON     CLOUDY    64  61  90 SE5       30.08F
CHARLESTON     TSTM      68  58  70 W12G26    30.15R
PINEVILLE*     PTCLDY    60  59  96 MISG      30.20R FOG
BECKLEY        CLOUDY    68  57  68 SW8       30.18R
BLUEFIELD      CLOUDY    66  55  67 SW5       30.21R
LOGAN CO APT*  CLOUDY    72  61  68 CALM      30.13R
$$

VAZ002-007-008-TNZ017-027-036-066-071-291200
...SOUTHWEST VIRGINIA/EAST TENNESSEE...

CITY           SKY/WX    TMP DP  RH WIND       PRES   REMARKS
WISE*          MOCLDY    64  55  72 CALM      30.20R
JONESVILLE*      N/A     61  61 100 CALM      30.14S FOG
ABINGDON*      PTCLDY    61  60  97 CALM      30.18R
BRISTOL        CLOUDY    59  58  96 CALM      30.14R
MORRISTOWN*    SUNNY     63  61  94 N6        30.10R FOG
SEVIERVILLE*   SUNNY     59  57  94 CALM      30.09R
KNOXVILLE      CLOUDY    65  62  90 N5        30.08R
LAFOLLETTE*    PTSUNNY   73  64  73 VRB5      30.11S
OAK RIDGE      PTCLDY    69  64  84 CALM      30.10R
CROSSVILLE     CLEAR     67  64  90 S5        30.10S
NASHVILLE      CLOUDY    73  68  84 SE9       29.98R
$$

...KEY TO REMARKS...
VSB - VISIBILITY IN MILES
WCI - WIND CHILL INDEX
HX  - HEAT INDEX

$$




USA.gov is the U.S. government's official web portal to all federal, state and local government web resources and services.